Main page
METAR-TAF:

METAR-TAF

Airports :

Big Spring McMahon–Wrinkle Airport

Big Spring, Texas, United States

latitude: 32-12N, longitude: 101-31W, elevation: 2572 ft

Current weather observation

The report was made 24 minutes ago, at 09:55 UTC
Calm wind
Temperature 41°F
Humidity 70%
Pressure 30.19 in. Hg
Visibility: 10 miles
Overcast at a height of 1600 ft

METAR: KBPG 190955Z AUTO 00000KT 10SM OVC016 05/00 A3019 RMK AO2 T00500000

Time: 04:19 (10:19 UTC)


TAF: missing

Weather observations and forecasts of more than 4000 airports (METAR and TAF reports).

The available stations are represented by yellow and red dots on the map.

Hover mouse over dot to see the name of the station.

Then click to see weather observations and forecasts.

To change the map : click on the green buttons with a black cross to zoom in, on the green button with a dash to zoom out, or on the green arrows for adjacent maps.


METAR-TAF: